Location: Newark
(43.6583°N, 1.6617°E)
Time: 15:25:58
(UTC+00:00)

Tiros 1 - Pass Details

Date: 27 August 2019
Orbit: 630 x 664 km, 48.4° (Epoch: 18 September)

Event Time Altitude Azimuth Distance (km) Brightness Sun altitude
Rises 03:07:44 0° 294° (WNW) 2,928 - -20.7°
Reaches altitude 10° 03:10:03 10° 294° (WNW) 2,022 - -20.3°
Exits shadow 03:12:02 25° 294° (WNW) 1,281 8.4 -20.0°
Maximum altitude 03:14:43 88° 207° (SSW) 644 7.0 -19.7°
Drops below altitude 10° 03:19:25 10° 117° (ESE) 2,034 10.0 -19.0°
Sets 03:21:45 0° 117° (ESE) 2,948 10.9 -18.6°
